395  
ASUS45 KBOU 202310  
RWRCO  
 
WEATHER ROUNDUP FOR COLORADO  
NATIONAL WEATHER SERVICE DENVER/BOULDER CO  
400 PM MST TUE FEB 20 2018  
 
NOTE: "FAIR" INDICATES FEW OR NO CLOUDS BELOW 12000 FEET WITH NO  
SIGNIFICANT WEATHER AND/OR S TO VISIBILITY
.  
 
COZ001>005-013-030-031-210000-   
..NORTHWEST COLORADO
 
 
 
CITY SKY/WX TMP DP RH WIND PRES REMARKS
 
CRAIG PTSUNNY 15 5 64 CALM 30.00R  
HAYDEN FAIR 13 6 74 CALM 29.99R  
MEEKER CLOUDY 20 4 50 NW7 29.97R WCI 11  
RANGELY FAIR 24 5 44 CALM 30.03R  
RABBIT EARS PA CLOUDY 3 0 85 W12G20 29.74R FOG WCI -13  
STEAMBOAT SPGS FAIR 16 2 54 W6 29.94R WCI 7  
WALDEN FAIR 14 -6 41 W15 29.88R WCI -1  

 
 
COZ006>008-011-210000-   
..WEST CENTRAL VALLEYS
 
 
 
CITY SKY/WX TMP DP RH WIND PRES REMARKS
 
GRAND JUNCTION FAIR 30 13 49 NW7 30.01R WCI 23  
MONTROSE LGT SNOW 22 17 81 N6 30.03R WCI 14  
EAGLE CLOUDY 22 7 52 SW13 29.96R WCI 10  
RIFLE FAIR 26 5 40 W14 29.98R WCI 14  
DELTA FAIR 31 13 49 W9 30.02R WCI 22  
NUCLA FAIR 28 14 54 W10 30.03R WCI 19  

 
 
COZ017>023-064>068-210000-   
..SOUTHWEST COLORADO
 
 
 
CITY SKY/WX TMP DP RH WIND PRES REMARKS
 
DURANGO PTSUNNY 27 9 46 W16G22 29.98R WCI 15  
CORTEZ CLOUDY 30 8 39 S12 30.00R WCI 20  
PAGOSA SPRINGS FAIR 24 5 43 SW9 29.95R WCI 14  
TELLURIDE CLOUDY 17 0 47 S6 29.89R WCI 8  
WOLF CREEK PAS CLOUDY 1 0 92 S21G29 29.82R WCI -20  

 
 
COZ009-010-012-014-032>034-037-058>063-210000-   
..CENTRAL COLORADO
 
 
 
CITY SKY/WX TMP DP RH WIND PRES REMARKS
 
ASPEN PTSUNNY 14 7 73 N8 29.89R WCI 3  
BUENA VISTA CLOUDY 22 -4 30 SW10 29.85R WCI 12  
COPPER MTN LGT SNOW 5 -9 51 W16G30 29.70R WCI -14  
BERTHOUD PASS CLOUDY -6 -15 65 W15G30 29.67R WCI -27  
COTTONWOOD PAS CLOUDY 21 -6 30 SW9G20 29.79R WCI 11  
GUNNISON FAIR 21 1 41 W12 29.89R WCI 9  
GRANBY LGT SNOW 13 9 82 W5 29.87R VSB 1 WCI 5  
KREMMLING FLURRIES 21 10 63 N6 29.91R WCI 14  
LEADVILLE LGT SNOW 10 -5 50 W5 29.78R WCI 2  
MONARCH PASS N/A 1 -4 78 W18G33 29.83R WCI -19  
SALIDA FAIR 27 -1 30 W10 29.95R WCI 17  
SUNLIGHT SNOW 3 0 85 SW7 29.82R VSB 1/2 WCI -9  
WILKERSON PASS PTSUNNY 10 -4 52 SW9G17 29.77R WCI -2  

 
 
COZ069>075-210000-   
..SAN LUIS VALLEY/SANGRE DE CRISTO MOUNTAINS
 
 
 
CITY SKY/WX TMP DP RH WIND PRES REMARKS
 
ALAMOSA FAIR 27 0 31 S21G26 29.89R WCI 13  
DEL NORTE FAIR 24 1 38 SW18G29 29.89R WCI 10  
LA VETA PASS FAIR 18 -4 38 S20G44 29.91R WCI 1  
SAGUACHE PTSUNNY 27 3 36 NW10 29.86R WCI 17  

 
 
COZ035-036-038>040-210000-   
..NORTHERN COLORADO FRONT RANGE
 
 
 
CITY SKY/WX TMP DP RH WIND PRES REMARKS
 
DENVER INTL AP PTSUNNY 12 4 70 CALM 29.99R  
AURORA PTSUNNY 12 6 77 E6 29.98R WCI 2  
FRONT RANGE AP PTSUNNY 16 7 67 CALM 30.00R  
ERIE MUNI ARPT NOT AVBL  
BOULDER MUN AP CLOUDY 14 5 67 NE5 30.00R WCI 6  
CENTENNIAL PTSUNNY 17 9 70 N8 29.96R WCI 7  
BROOMFIELD CLOUDY 10 5 79 CALM 29.97S  
FORT COLLINS FAIR 14 4 64 S8 30.04R WCI 3  
LONGMONT CLOUDY 14 3 61 CALM 30.05R  

 
 
COZ041-046-047-076>085-087-088-210000-   
..PIKES PEAK/PALMER DIVIDE AND SOUTHERN FOOTHILLS
 
 
 
CITY SKY/WX TMP DP RH WIND PRES REMARKS
 
COLO. SPRINGS PTSUNNY 20 14 77 SE9 29.94R WCI 9  
A. F. ACADEMY CLOUDY 19 13 76 SE8 29.91R WCI 9  
SCHRIEVER AFB NOT AVBL  
CHEYENNE MTN SNOWSHWR 15 13 94 SE9 29.84R FOG WCI 3  
ELLICOTT N/A N/A N/A N/A S7 29.93R  
FALCON FAIR 20 12 69 S6 29.92R WCI 12  
FORT CARSON PTSUNNY 20 12 70 SE3 29.94R  
LIMON FAIR 17 7 64 NE8 30.00R WCI 7  
MONUMENT HILL FLURRIES 16 12 86 N6 29.91R WCI 7  
CANON CITY MOSUNNY 27 18 69 E7 29.96R WCI 19  
WALSENBURG NOT AVBL  
TRINIDAD FAIR 30 14 51 E10 29.93R WCI 21  

 
 
COZ042>045-048>051-090-091-210000-   
..NORTHEAST COLORADO
 
 
 
CITY SKY/WX TMP DP RH WIND PRES REMARKS
 
GREELEY ARPT NOT AVBL  
AKRON FAIR 13 1 59 N8 30.06R WCI 2  
BURLINGTON FAIR 15 1 53 N12 30.09R WCI 2  
WRAY FAIR 19 3 49 N13 30.14R WCI 7  
YUMA NOT AVBL  
STERLING FAIR 16 3 57 N7 30.10R WCI 6  
HOLYOKE FAIR 19 1 45 N13 30.14R WCI 7  
FORT MORGAN CLOUDY 14 0 54 W6 30.07R WCI 5  

 
 
COZ086-089-092>099-210000-   
..SOUTHEAST COLORADO
 
 
 
CITY SKY/WX TMP DP RH WIND PRES REMARKS
 
PUEBLO FAIR 23 12 62 SE9 30.01R WCI 13  
LA JUNTA FAIR 26 11 52 E14 30.05R WCI 14  
LAMAR CLOUDY 26 5 40 NE8 30.08R WCI 18  
SPRINGFIELD N/A 27 6 41 NE14 30.03R WCI 16  

 
 
 
CLICK HERE TO GO TO PREVIOUS BULLETINS.

The Nexlab CO Page Main Text Page